When you browse on this site, cookies collect data to enhance your experience and personalize the content and advertising you see.
Visit our Privacy Policy to learn more. By continuing to use the site, you agree to this use of cookies and data.
  • In Österreich
  • Länderverzeichnis
  • Für 7 Tage
  • Wassertemperatur
  • Wetterkarte
  • News
  • Widgets
  • user-avatar
    Anmelden

    Stündliche Wetter San Miguel Vindho

    Heute, 7 Dezember, Samstag

    Zeit Temperatur Niederschläge Wind Luftdruck Luftfeuchtigkeit
    00:00 +10°C° 0 mm 1 m/S 595 mmHg 92%
    01:00 +10°C° 0 mm 1 m/S 595 mmHg 92%
    02:00 +10°C° 0 mm 1 m/S 595 mmHg 93%
    03:00 +10°C° 0 mm 1 m/S 595 mmHg 92%
    04:00 +9°C° 0 mm 1 m/S 595 mmHg 91%
    05:00 +9°C° 0 mm 1 m/S 595 mmHg 90%
    06:00 +10°C° 0 mm 1 m/S 596 mmHg 84%
    07:00 +11°C° 0 mm 1 m/S 596 mmHg 77%
    08:00 +12°C° 0 mm 1 m/S 597 mmHg 70%
    09:00 +14°C° 0 mm 1 m/S 597 mmHg 59%
    10:00 +16°C° 0 mm 1 m/S 598 mmHg 48%
    11:00 +20°C° 0 mm 1 m/S 599 mmHg 36%
    12:00 +20°C° 0 mm 2 m/S 598 mmHg 33%
    13:00 +21°C° 0 mm 2 m/S 598 mmHg 30%
    14:00 +23°C° 0 mm 2 m/S 598 mmHg 27%
    15:00 +20°C° 0 mm 2 m/S 597 mmHg 34%
    16:00 +18°C° 0 mm 2 m/S 596 mmHg 41%
    17:00 +16°C° 0 mm 2 m/S 596 mmHg 48%
    18:00 +15°C° 0 mm 2 m/S 596 mmHg 56%
    19:00 +14°C° 0 mm 1 m/S 596 mmHg 63%
    20:00 +13°C° 0 mm 1 m/S 596 mmHg 71%
    21:00 +13°C° 0 mm 1 m/S 596 mmHg 76%
    22:00 +11°C° 0 mm 0 m/S 595 mmHg 80%
    23:00 +10°C° 0 mm 0 m/S 595 mmHg 84%

    Morgen, 8 Dezember, Sonntag

    Zeit Temperatur Niederschläge Wind Luftdruck Luftfeuchtigkeit
    00:00 +10°C° 0 mm 0 m/S 595 mmHg 84%
    01:00 +10°C° 0 mm 0 m/S 594 mmHg 83%
    02:00 +10°C° 0 mm 1 m/S 594 mmHg 82%
    03:00 +10°C° 0 mm 1 m/S 594 mmHg 80%
    04:00 +10°C° 0 mm 1 m/S 593 mmHg 78%
    05:00 +10°C° 0 mm 1 m/S 593 mmHg 76%
    06:00 +11°C° 0 mm 1 m/S 594 mmHg 67%
    07:00 +13°C° 0 mm 1 m/S 595 mmHg 58%
    08:00 +15°C° 0 mm 1 m/S 596 mmHg 49%
    09:00 +18°C° 0 mm 1 m/S 597 mmHg 41%
    10:00 +21°C° 0 mm 1 m/S 597 mmHg 32%
    11:00 +23°C° 0 mm 1 m/S 598 mmHg 24%
    12:00 +24°C° 0 mm 2 m/S 597 mmHg 22%
    13:00 +24°C° 0 mm 2 m/S 597 mmHg 21%
    14:00 +25°C° 0 mm 3 m/S 597 mmHg 19%
    15:00 +22°C° 0 mm 3 m/S 596 mmHg 24%
    16:00 +20°C° 0 mm 2 m/S 595 mmHg 30%
    17:00 +18°C° 0 mm 2 m/S 594 mmHg 35%
    18:00 +18°C° 0 mm 1 m/S 594 mmHg 38%
    19:00 +16°C° 0 mm 1 m/S 594 mmHg 42%
    20:00 +15°C° 0 mm 1 m/S 594 mmHg 45%
    21:00 +14°C° 0 mm 1 m/S 594 mmHg 47%
    22:00 +14°C° 0 mm 1 m/S 594 mmHg 48%
    23:00 +13°C° 0 mm 1 m/S 593 mmHg 49%

    übermorgen, 9 Dezember, Montag

    Zeit Temperatur Niederschläge Wind Luftdruck Luftfeuchtigkeit
    00:00 +13°C° 0 mm 1 m/S 593 mmHg 49%
    01:00 +12°C° 0 mm 1 m/S 593 mmHg 49%
    02:00 +12°C° 0 mm 1 m/S 592 mmHg 49%
    03:00 +12°C° 0 mm 1 m/S 592 mmHg 49%
    04:00 +11°C° 0 mm 1 m/S 592 mmHg 50%
    05:00 +11°C° 0 mm 1 m/S 592 mmHg 50%
    06:00 +13°C° 0 mm 1 m/S 593 mmHg 45%
    07:00 +15°C° 0 mm 1 m/S 594 mmHg 41%
    08:00 +18°C° 0 mm 1 m/S 596 mmHg 36%
    09:00 +20°C° 0 mm 1 m/S 596 mmHg 30%
    10:00 +22°C° 0 mm 1 m/S 596 mmHg 25%
    11:00 +22°C° 0 mm 0 m/S 597 mmHg 19%
    12:00 +25°C° 0 mm 1 m/S 596 mmHg 18%
    13:00 +25°C° 0 mm 1 m/S 596 mmHg 16%
    14:00 +26°C° 0 mm 1 m/S 595 mmHg 15%
    15:00 +24°C° 0 mm 1 m/S 595 mmHg 19%
    16:00 +22°C° 0 mm 1 m/S 594 mmHg 22%
    17:00 +20°C° 0 mm 1 m/S 593 mmHg 26%
    18:00 +19°C° 0 mm 1 m/S 593 mmHg 30%
    19:00 +18°C° 0 mm 1 m/S 593 mmHg 34%
    20:00 +16°C° 0 mm 1 m/S 593 mmHg 38%
    21:00 +16°C° 0 mm 1 m/S 593 mmHg 42%
    22:00 +15°C° 0 mm 1 m/S 593 mmHg 47%
    23:00 +15°C° 0 mm 1 m/S 593 mmHg 51%

    10 Dezember, Dienstag

    Zeit Temperatur Niederschläge Wind Luftdruck Luftfeuchtigkeit
    00:00 +14°C° 0 mm 1 m/S 593 mmHg 56%
    01:00 +14°C° 0 mm 1 m/S 592 mmHg 61%
    02:00 +13°C° 0 mm 1 m/S 592 mmHg 66%
    03:00 +13°C° 0 mm 1 m/S 592 mmHg 69%
    04:00 +13°C° 0 mm 1 m/S 592 mmHg 73%
    05:00 +12°C° 0 mm 1 m/S 592 mmHg 76%
    06:00 +14°C° 0 mm 1 m/S 593 mmHg 70%
    07:00 +16°C° 0 mm 1 m/S 594 mmHg 63%
    08:00 +18°C° 0 mm 1 m/S 595 mmHg 56%
    09:00 +20°C° 0 mm 1 m/S 596 mmHg 49%
    10:00 +22°C° 0 mm 1 m/S 596 mmHg 41%
    11:00 +24°C° 0 mm 1 m/S 597 mmHg 33%
    12:00 +25°C° 0 mm 1 m/S 597 mmHg 30%
    13:00 +25°C° 0 mm 1 m/S 596 mmHg 27%
    14:00 +26°C° 0 mm 1 m/S 596 mmHg 24%
    15:00 +24°C° 0 mm 2 m/S 596 mmHg 28%
    16:00 +23°C° 0 mm 2 m/S 596 mmHg 32%
    17:00 +20°C° 0 mm 2 m/S 595 mmHg 37%
    18:00 +18°C° 0 mm 2 m/S 595 mmHg 51%
    19:00 +17°C° 0 mm 2 m/S 595 mmHg 66%
    20:00 +15°C° 0 mm 2 m/S 595 mmHg 80%
    21:00 +15°C° 0 mm 2 m/S 595 mmHg 83%
    22:00 +14°C° 0 mm 2 m/S 595 mmHg 86%
    23:00 +14°C° 0 mm 2 m/S 595 mmHg 88%

    11 Dezember, Mittwoch

    Zeit Temperatur Niederschläge Wind Luftdruck Luftfeuchtigkeit
    00:00 +14°C° 0 mm 2 m/S 595 mmHg 87%
    01:00 +14°C° 0 mm 2 m/S 595 mmHg 85%
    02:00 +14°C° 0 mm 2 m/S 595 mmHg 84%
    03:00 +13°C° 0 mm 2 m/S 595 mmHg 85%
    04:00 +13°C° 0 mm 2 m/S 595 mmHg 86%
    05:00 +13°C° 0 mm 2 m/S 595 mmHg 86%
    06:00 +13°C° 0 mm 2 m/S 595 mmHg 84%
    07:00 +13°C° 0 mm 2 m/S 596 mmHg 82%
    08:00 +13°C° 0 mm 2 m/S 596 mmHg 80%
    09:00 +14°C° 0 mm 2 m/S 596 mmHg 74%
    10:00 +15°C° 0 mm 2 m/S 597 mmHg 69%
    11:00 +16°C° 0 mm 2 m/S 597 mmHg 63%
    12:00 +17°C° 0 mm 2 m/S 596 mmHg 60%
    13:00 +17°C° 0 mm 3 m/S 596 mmHg 57%
    14:00 +18°C° 0 mm 3 m/S 596 mmHg 55%
    15:00 +17°C° 0 mm 3 m/S 595 mmHg 61%
    16:00 +14°C° 0 mm 3 m/S 595 mmHg 67%
    17:00 +13°C° 0 mm 3 m/S 595 mmHg 74%
    18:00 +13°C° 0 mm 2 m/S 595 mmHg 78%
    19:00 +12°C° 0 mm 2 m/S 595 mmHg 83%
    20:00 +11°C° 0 mm 1 m/S 595 mmHg 87%
    21:00 +11°C° 0 mm 1 m/S 595 mmHg 88%
    22:00 +11°C° 0 mm 1 m/S 595 mmHg 88%
    23:00 +9°C° 0 mm 0 m/S 595 mmHg 89%

    12 Dezember, Donnerstag

    Zeit Temperatur Niederschläge Wind Luftdruck Luftfeuchtigkeit
    00:00 +9°C° 0 mm 0 m/S 594 mmHg 89%
    01:00 +9°C° 0 mm 0 m/S 594 mmHg 90%
    02:00 +9°C° 0 mm 0 m/S 594 mmHg 90%
    03:00 +9°C° 0 mm 0 m/S 594 mmHg 90%
    04:00 +10°C° 0 mm 1 m/S 594 mmHg 90%
    05:00 +10°C° 0 mm 1 m/S 593 mmHg 90%
    06:00 +11°C° 0 mm 1 m/S 594 mmHg 83%
    07:00 +13°C° 0 mm 1 m/S 595 mmHg 75%
    08:00 +14°C° 0 mm 1 m/S 596 mmHg 68%
    09:00 +18°C° 0 mm 1 m/S 597 mmHg 58%
    10:00 +20°C° 0 mm 1 m/S 597 mmHg 49%
    11:00 +22°C° 0 mm 1 m/S 598 mmHg 40%
    12:00 +21°C° 0 mm 2 m/S 597 mmHg 37%
    13:00 +23°C° 0 mm 2 m/S 597 mmHg 34%
    14:00 +24°C° 0 mm 3 m/S 596 mmHg 32%
    15:00 +21°C° 0 mm 3 m/S 596 mmHg 37%
    16:00 +20°C° 0 mm 2 m/S 595 mmHg 41%
    17:00 +18°C° 0 mm 2 m/S 595 mmHg 46%
    18:00 +17°C° 0 mm 2 m/S 595 mmHg 50%
    19:00 +18°C° 0 mm 1 m/S 595 mmHg 53%
    20:00 +15°C° 0 mm 0 m/S 595 mmHg 57%
    21:00 +15°C° 0 mm 0 m/S 595 mmHg 58%
    22:00 +15°C° 0 mm 0 m/S 595 mmHg 58%
    23:00 +15°C° 0 mm 0 m/S 595 mmHg 59%
    Mehr zeigen